This demonstration page uses our WeatherBlox Daily Observations layout. Learn more.

Left ArrowRight Arrow

39.01783, -85.05884

Hourly Observations for March 12, 2020

Temp ( °F °C ) Dew Point ( °F °C ) Humidity (%) Winds ( mph kmh ) Pressure ( in mb ) Visibility ( mi km ) Precip ( " mm )
12:12 am 00:12 Partly Cloudy 42 5.6 38 3.3 85 85 Calm 30.04 1017 8 13 0.00 0.00
12:52 am 00:52 Mostly Clear 43 6.1 39 3.9 86 86 Calm 30.01 1016 8 13 0.00 0.00
1:19 am 01:19 Mostly Cloudy 43 6.1 40 4.4 89 89 Calm 30.03 1017 7 11 0.00 0.00
1:52 am 01:52 Cloudy with Mist and Fog 42 5.6 39 3.9 89 89 Calm 29.99 1016 6 10 0.00 0.00
2:43 am 02:43 Mostly Cloudy 46 7.8 40 4.4 79 79 Calm 30.00 1016 8 13 0.00 0.00
2:52 am 02:52 Partly Cloudy 45 7.2 40 4.4 83 83 SE 3 6 29.98 1015 8 13 0.00 0.00
3:52 am 03:52 Mostly Clear 44 6.7 39 3.9 83 83 ENE 3 6 29.96 1015 8 13 0.00 0.00
4:52 am 04:52 Mostly Clear 44 6.7 38 3.3 79 79 Calm 29.96 1014 8 13 0.00 0.00
5:42 am 05:42 Mostly Cloudy 44 6.7 38 3.3 79 79 E 6 9 29.97 1015 8 13 0.00 0.00
5:52 am 05:52 Cloudy 44 6.7 38 3.3 79 79 ESE 3 6 29.95 1014 7 11 0.00 0.00
6:52 am 06:52 Cloudy 46 7.8 40 4.4 79 79 ESE 5 7 29.96 1014 7 11 0.00 0.00
7:52 am 07:52 Cloudy with Haze 46 7.8 41 5 83 83 SE 8 13 29.95 1014 6 10 0.00 0.00
8:52 am 08:52 Mostly Cloudy with Haze 47 8.3 42 5.6 83 83 SSE 7 11 29.94 1014 6 10 0.00 0.00
9:52 am 09:52 Mostly Cloudy 49 9.4 42 5.6 77 77 SE 6 9 29.94 1014 8 13 0.00 0.00
10:52 am 10:52 Mostly Cloudy 54 12.2 44 6.7 69 69 SE 9 15 29.92 1013 10 16 0.00 0.00
11:52 am 11:52 Mostly Cloudy 59 15 46 7.8 62 62 SE 10 17 29.89 1012 10 16 0.00 0.00
12:52 pm 12:52 Cloudy 61 16.1 48 8.9 63 63 S 13 20 29.86 1011 10 16 0.00 0.00
1:06 pm 13:06 Mostly Cloudy 62 16.7 48 8.9 60 60 S 9 15 29.85 1011 10 16 0.00 0.00
1:52 pm 13:52 Cloudy 63 17.2 48 8.9 58 58 SSW 9 15 29.83 1010 10 16 0.00 0.00
2:52 pm 14:52 Cloudy 64 17.8 50 10 60 60 SSE 10 17 29.80 1009 10 16 0.00 0.00
3:52 pm 15:52 Cloudy 63 17.2 50 10 63 63 SSE 5 7 29.77 1008 10 16 0.00 0.00
4:52 pm 16:52 Cloudy 64 17.8 52 11.1 65 65 S 12 19 29.74 1007 10 16 0.00 0.00
5:41 pm 17:41 Cloudy with Light Rain 62 16.7 53 11.7 73 73 S 7 11 29.75 1007 8 13 0.00 0.00
5:50 pm 17:50 Cloudy with Rain 61 16 54 12 77 77 SW 6 9 29.76 1008 3 4 0.01 0.25
5:52 pm 17:52 Cloudy with Rain 61 16.1 54 12.2 78 78 WSW 5 7 29.75 1008 2 3 0.02 0.51
6:06 pm 18:06 Cloudy with Heavy Rain 60 15.6 54 12.2 80 80 S 3 6 29.74 1007 2 3 0.07 1.78
6:24 pm 18:24 Cloudy with Rain 59 15 55 12.8 87 87 SSE 12 19 29.72 1007 3 4 0.17 4.32
6:52 pm 18:52 Cloudy with Rain 59 15 56 13.3 90 90 S 9 15 29.71 1006 3 4 0.23 5.84
7:16 pm 19:16 Cloudy with Light Rain 59 15 56 13.3 90 90 SE 10 17 29.70 1006 7 11 0.04 1.02
7:42 pm 19:42 Cloudy with Light Rain 59 15 56 13.3 90 90 ESE 7 11 29.71 1006 7 11 0.08 2.03
7:52 pm 19:52 Cloudy with Light Rain 59 15 56 13.3 90 90 ESE 7 11 29.71 1006 7 11 0.08 2.03
8:00 pm 20:00 Cloudy with Rain 58 14.4 56 13.3 93 93 ESE 12 19 29.70 1006 4 6 0.02 0.51
8:52 pm 20:52 Cloudy with Light Rain 59 15 57 13.9 93 93 S 14 22 29.66 1004 8 13 0.11 2.79
9:14 pm 21:14 Cloudy 59 15 57 13.9 93 93 S 17 28 29.66 1005 10 16 0.00 0.00
9:52 pm 21:52 Cloudy with Light Rain 60 15.6 57 13.9 90 90 S 15 24 29.66 1004 10 16 0.02 0.51
9:57 pm 21:57 Cloudy 60 15.6 57 13.9 90 90 S 14 22 29.66 1004 10 16 0.00 0.00
10:11 pm 22:11 Cloudy 60 15.6 57 13.9 90 90 S 14 22 29.64 1004 10 16 0.00 0.00
10:25 pm 22:25 Cloudy 60 15.6 57 13.9 90 90 S 14 22 29.64 1004 10 16 0.00 0.00
10:52 pm 22:52 Cloudy with Light Rain 61 16.1 57 13.9 87 87 S 14 22 29.63 1004 10 16 0.00 0.00
11:42 pm 23:42 Cloudy 61 16.1 58 14.4 90 90 SSW 12 19 29.66 1004 10 16 0.01 0.25
11:52 pm 23:52 Cloudy 61 16.1 58 14.4 90 90 SW 10 17 29.66 1005 10 16 0.01 0.25

Powered by AerisWeather